Powrót do katalogu

KUIPER-00439

AktywnyŁącznośćLEO
NORAD 68941·PAYLOAD·🇺🇸 United States

Wystrzelony Apr 30, 2026 z Guiana Space Centre

Loading…

Następne Przeloty (najbliższe 24 godziny)

TLE

ŚwieżeSource: CelesTrak SupGP

Epoka: Sep 14, 2026, 22:03 UTC

1 68941C 26098Y   26257.91890046  .00004817  00000+0  63113-3 0  2575
2 68941  51.9034  18.8808 0000838  76.4189 276.7466 14.79889522    13

Śledź KUIPER-00439 w czasie rzeczywistym z AllMySat

Download on the App Store